www.pogodaiklimat.ru

Погода и климат >> Архив погоды >> Мали >> Kayes


ПОГОДА в Kayes

  • Прогноз погоды в Kayes
  • Монитор погоды в Kayes
  • Климат города

АРХИВ ПОГОДЫ в Kayes

Время (UTC), дата Ветер
(напр.,м/с)
 
Видим.   Явления Облачность Т
(С)
Тd
(С)
f
(%)
Тe
(С)
Тes
(С)
Комфортность P
(гПа)
Po
(гПа)
Тmin
(С)
Tmax
(С)
R
(мм)
R24
(мм)
S
(см)
00 14.09 штиль 0 10 км 5/1 900 м
[Sc Ci sp]
+28.2 +26.9 93 +44 +44 опасность
перегрева
1011.8 1005.6
03 14.09 ЮЗ 1 10 км 5/1 900 м
[Sc Ac lent Ci sp]
+27.3 +26.6 96 +42 +42 опасность
перегрева
1010.6 1004.4
06 14.09 ЮВ 5 10 км гроза без осадков {дождь} 10/5 900 м
[Cb cap Ac As]
+22.0 +21.4 96 +29 +29 очень
душно
1011.9 1005.6 +22.0 11
09 14.09 З 3 10 км {гроза} 8/3 900 м
[Sc Ac lent Ci sp]
+25.6 +22.5 83 +34 +36 очень
душно
1014.0 1007.7
12 14.09 СЗ 3 10 км 6/1 900 м
[Sc Ac lent Ci sp]
+29.0 +24.5 77 +41 +52 опасность
перегрева
1013.7 1007.4
15 14.09 СЗ 1 10 км 6/0
[Ci sp]
+32.8 +25.3 65 +47 +62 опасность
перегрева
1010.7 1004.5
18 14.09 ЮЗ 2 10 км 5/0
[Ci sp]
+32.3 +26.0 69 +48 +49 опасность
перегрева
1009.7 1003.4 +33.5
21 14.09 ЮЗ 2 10 км 5/0
[Ci sp]
+28.0 +25.9 88 +42 +42 опасность
перегрева
1011.8 1005.5
00 15.09 ЮЗ 2 10 км 5/0
[Ci sp]
+26.3 +25.0 93 +38 +38 очень
душно
1012.5 1006.2
03 15.09 ЮЗ 2 10 км 6/0
[Ci sp]
+25.6 +24.3 93 +36 +36 очень
душно
1011.1 1004.8
06 15.09 ЮЗ 3 10 км 6/0
[Ci sp]
+25.0 +24.1 95 +34 +34 очень
душно
1012.2 1005.9 +25.0
09 15.09 Ю 3 10 км 5/0
[Ci sp]
+27.7 +24.4 82 +39 +44 очень
душно
1012.8 1006.5
12 15.09 ЮЗ 3 10 км 6/0
[Ci sp]
+32.0 +23.5 61 +43 +58 опасность
перегрева
1012.2 1005.9
15 15.09 ЮЗ 2 10 км 8/0
[Ci sp]
+33.2 +24.1 59 +45 +57 опасность
перегрева
1010.2 1004.0
18 15.09 СЗ 2 10 км 9/0
[Ci sp]
+32.2 +25.7 69 +47 +48 опасность
перегрева
1009.9 1003.6 +34.6
21 15.09 З 2 10 км 6/0
[Ci sp]
+29.6 +26.8 85 +46 +46 опасность
перегрева
1011.9 1005.6
00 16.09 ЮЗ 2 10 км 5/0
[Ci sp]
+28.5 +25.7 85 +42 +42 опасность
перегрева
1012.9 1006.7
03 16.09 З 2 10 км 5/0
[Ci sp]
+27.3 +26.6 96 +42 +42 опасность
перегрева
1011.5 1005.3
06 16.09 ЮЗ 2 10 км ясно +26.3 +24.9 92 +38 +38 очень
душно
1012.2 1005.9 +26.3
09 16.09 З 4 10 км 5/0
[Ci sp]
+28.0 +25.2 85 +41 +45 опасность
перегрева
1012.9 1006.6
12 16.09 З 3 10 км 8/1 900 м
[Sc Ci sp]
+32.2 +26.0 70 +48 +61 опасность
перегрева
1012.5 1006.3
15 16.09 З 3 10 км 9/3 900 м
[Sc Ac lent Ci sp]
+33.5 +25.9 65 +49 +54 опасность
перегрева
1010.7 1004.5
18 16.09 З 3 10 км 9/1 900 м
[Sc Ac lent Ci sp]
+32.5 +26.0 69 +48 +49 опасность
перегрева
1009.6 1003.4 +35.0
21 16.09 Ю 2 10 км 8/1 900 м
[Sc Ci sp]
+29.7 +26.4 82 +45 +45 опасность
перегрева
1010.7 1004.4
00 17.09 СЗ 4 10 км зарница {гроза, дождь} 9/4 900 м
[Cb cap Ac As]
+23.4 +22.5 95 +32 +32 очень
душно
1012.3 1006.0 0.6
03 17.09 З 2 10 км 9/3 900 м
[Sc Ac lent Ci sp]
+24.5 +23.5 94 +33 +33 очень
душно
1008.9 1002.7
06 17.09 ЮВ 3 10 км 9/3 900 м
[Sc Ac lent Ci sp]
+24.0 +22.2 90 +31 +31 очень
душно
1010.0 1003.7 +22.6 5
09 17.09 штиль 0 10 км 10/1 900 м
[Sc Ac As Ci sp]
+25.6 +24.0 91 +35 +39 очень
душно
1013.3 1007.0
12 17.09 ЮВ 2 10 км осадки на расстоянии {снег} 9/9 900 м
[]
+29.3 +24.6 76 +42 +44 опасность
перегрева
1012.6 1006.3
15 17.09 ЮВ 2 10 км 9/1 900 м
[Sc Ac As]
+30.4 +24.8 72 +43 +48 опасность
перегрева
1009.2 1002.9
18 17.09 ЮВ 2 10 км 9/1 900 м
[Sc Ac lent Ci sp]
+30.0 +25.2 76 +44 +44 опасность
перегрева
1008.3 1002.2 +32.0
21 17.09 В 1 10 км зарница 10/4 900 м
[Cb cap Ac As Ci sp]
+27.4 +25.8 91 +41 +41 опасность
перегрева
1010.9 1004.6
00 18.09 В 2 10 км 9/3 900 м
[Sc Ac As Ci sp]
+26.0 +24.8 93 +37 +37 очень
душно
1011.8 1005.5
03 18.09 СЗ 1 10 км зарница 8/3 900 м
[Cb cap Ac lent Ci sp]
+25.0 +24.0 94 +34 +34 очень
душно
1010.3 1004.0
06 18.09 В 2 10 км 8/1 900 м
[Sc Ac lent Ci sp]
+24.4 +24.1 98 +34 +34 очень
душно
1010.3 1004.0 +24.4
09 18.09 ЮВ 1 10 км 9/1 900 м
[Sc Ac lent Ci sp]
+29.3 +26.1 83 +44 +48 опасность
перегрева
1012.0 1005.7
12 18.09 ЮВ 3 10 км 9/4 900 м
[Sc Ac lent Ci sp]
+32.7 +26.4 70 +50 +55 опасность
перегрева
1012.0 1005.7
15 18.09 В 5 10 км 9/5 900 м
[Cb cap Ac As Ci sp]
+32.9 +25.3 64 +47 +49 опасность
перегрева
1009.5 1003.2
18 18.09 З 4 10 км 9/5 900 м
[Cb cap Ac As Ci sp]
+27.4 +24.4 84 +39 +39 очень
душно
1010.4 1004.1 +33.4
21 18.09 СЗ 3 10 км зарница 10/4 900 м
[Cb cap Ac As]
+25.4 +24.2 93 +35 +35 очень
душно
1012.5 1006.2
06 19.09 СЗ 1 10 км 10/3 900 м
[Sc Ac As]
+23.4 +23.1 98 +33 +33 очень
душно
1011.2 1004.9 +23.2 1
09 19.09 С 2 10 км 9/1 900 м
[Sc Ac lent Ci sp]
+27.0 +24.1 84 +37 +41 очень
душно
1013.8 1007.5
00 20.09 З 3 10 км 6/0
[Ci sp]
+27.5 +25.8 90 +41 +41 опасность
перегрева
1012.6 1006.3
03 20.09 З 3 10 км 6/0
[Ci sp]
+26.4 +25.1 93 +38 +38 очень
душно
1010.7 1004.5
06 20.09 ЮЗ 2 10 км 8/0
[Ci sp]
+26.5 +25.2 93 +38 +38 очень
душно
1011.2 1005.0 +26.4

 

Местоположение метеостанции Kayes (Мали): широта 14.43 долгота -11.43 высота над уровнем моря 47 м.

В архиве по умолчанию представлена погода в Kayes за последнюю неделю. Архивные данные за месяц целиком и за предыдущие месяцы, начиная с января 2011 года, Вы можете получить, выбрав интересующий диапазон дат из раскрывающегося списка и нажав кнопку "Ввод!".


*Определитесь, кто Вы:
робот инопланетянин человек

Внимание! Время в таблицах - всемирное. Для получения местного времени необходимо прибавить поправку, которая в Kayes равна 0 ч.

Смотрите также архив погоды в соседних городах и на ближайших метеорологических станциях:

Погода в Yelimane (Мали) (121 км)
Погода в Kenieba (Мали) (177 км)
Погода в Fatoto (Гамбия) (221 км)
Погода в Kedougou (Сенегал) (223 км)
Погода в Matam (Сенегал) (238 км)
Погода в Nioro Du Sahel (Мали) (241 км)
Погода в Kiffa (Мавритания) (245 км)
Погода в Tambacounda (Сенегал) (254 км)
Погода в Kita (Мали) (260 км)
Погода в Kaedi (Мавритания) (294 км)

Пояснения к столбцам:

Ветер - указаны скорость ветра в м/с - средняя за 10 мин, порывы в срок и между сроками (в фигурных скобках) и направление, откуда дует ветер: С - северный, СВ - северо-восточный, В - восточный, ЮВ - юго-восточный, Ю - южный, ЮЗ - юго-западный, З - западный, СЗ - северо-западный.
Видимость - горизонтальная дальность видимости в метрах или километрах. При видимости от 1 до 10 км при отсутствии осадков обычно наблюдается дымка, при ухудшении видимости до 1 км и менее - туман. В сухую погоду видимость может ухудшаться дымом, пылью или мглою.
Явления - указаны атмосферные явления, наблюдавшиеся в срок или в последний час перед сроком; фигурными скобками обозначены явления, наблюдавшиеся между сроками (за 1-3 часа до срока); квадратными скобками обозначены град или гололедные отложения с указанием их диаметра в мм.
Облачность - указаны через наклонную черту общая и нижняя облачность в баллах и высота нижней границы облаков в метрах; квадратными скобками обозначены формы облаков: Ci - перистые, Cs - перисто-слоистые, Cc - перисто-кучевые, Ac - высококучевые, As - высокослоистые, Sc - слоисто-кучевые, Ns - слоисто-дождевые, Cu - кучевые, Cb - кучево-дождевые. Подробнее классификацию облаков см. в Атласе облаков (PDF).
T - Температура воздуха - температура, измеренная на высоте 2 м над землей.
Td - Температура точки росы - температура, при понижении до которой содержащийся в воздухе водяной пар достигнет насыщения.
f - Относительная влажность воздуха - влажноcть воздуха, измеренная на высоте 2 м над землей.
Te - Эффективная температура - температура, которую ощущает одетый по сезону человек в тени. Характеристика душности погоды. При расчете учитывается влияние влажности воздуха и скорости ветра на теплоощущения человека.
Tes - Эффективная температура на солнце - температура, которую ощущает человек, с поправкой на солнечный нагрев. Характеристика знойности погоды. Зависит от высоты солнца над горизонтом, облачности и скорости ветра. Ночью, в пасмурную погоду, а также при ветре 12 м/с и более поправка равна нулю.
P - Атмосферное давление - приведенное к уровню моря атмосферное давление.
Po - Атмосферное давление - измеренное на уровне метеостанции атмосферное давление.
Tmin - Минимальная температура - минимум температуры воздуха на высоте 2 м над землей.
Tmax - Максимальная температура - максимум температуры воздуха на высоте 2 м над землей.
R - Количество осадков - Количество выпавших осадков за период времени, мм. При наведении курсора мыши на число - период времени, за который выпало указанное количество осадков.
R24 - Количество осадков - Количество выпавших осадков за 24 часа, мм.
S - Снежный покров - Высота снежного покрова, см. При наведении курсора мыши на число - состояние снежного покрова и степень покрытия местности в баллах.